CSN590 EGKK-EDDL

Flight info

Callsign CSN590
Flight time 0h 53m
Altitude 23000
Route DVR L9 KONAN/N0492F330 DCT KOK UL607 SPI Y862 KENUM M170 NVO T857 BIKMU BIKMU1A
Aircraft B78X/H-SDE1E2E3FGHIJ2J3J4J5M1RWXY/LB1D1

Departure

Time 2026-05-04 20:21
Airport London Gatwick Airport (EGKK)

Arrival

Time 2026-05-04 21:14
Airport Düsseldorf Airport (EDDL)
Time Latitude Longitude Altitude Speed Heading
2026-05-04 19:44 51.15453 -0.17163 183 ft 0 kts 36°
2026-05-04 19:54 51.15452 -0.17164 210 ft 3 kts 36°
2026-05-04 19:54 51.15430 -0.17189 217 ft 4 kts 37°
2026-05-04 19:54 51.15410 -0.17202 221 ft 0 kts 339°
2026-05-04 19:54 51.15390 -0.17180 219 ft 4 kts 288°
2026-05-04 19:55 51.15387 -0.17150 222 ft 2 kts 259°
2026-05-04 19:58 51.15387 -0.17151 222 ft 1 kts 259°
2026-05-04 19:58 51.15370 -0.17241 214 ft 15 kts 254°
2026-05-04 19:58 51.15313 -0.17378 220 ft 15 kts 231°
2026-05-04 19:59 51.15281 -0.17554 210 ft 20 kts 258°
2026-05-04 19:59 51.15250 -0.17768 212 ft 20 kts 257°
2026-05-04 19:59 51.15225 -0.17944 217 ft 12 kts 257°
2026-05-04 19:59 51.15220 -0.17985 215 ft 0 kts 257°
2026-05-04 20:00 51.15213 -0.18031 214 ft 12 kts 257°
2026-05-04 20:00 51.15189 -0.18197 218 ft 19 kts 257°
2026-05-04 20:01 51.15159 -0.18447 218 ft 24 kts 258°
2026-05-04 20:01 51.15127 -0.18708 217 ft 24 kts 257°
2026-05-04 20:01 51.15090 -0.18960 217 ft 23 kts 257°
2026-05-04 20:01 51.15060 -0.19180 210 ft 0 kts 257°
2026-05-04 20:02 51.15052 -0.19237 215 ft 12 kts 257°
2026-05-04 20:03 51.15039 -0.19333 217 ft 13 kts 258°
2026-05-04 20:03 51.15020 -0.19478 216 ft 14 kts 258°
2026-05-04 20:03 51.14999 -0.19628 216 ft 14 kts 256°
2026-05-04 20:03 51.14977 -0.19781 215 ft 14 kts 256°
2026-05-04 20:04 51.14959 -0.19932 210 ft 14 kts 259°
2026-05-04 20:04 51.14941 -0.20094 218 ft 15 kts 260°
2026-05-04 20:04 51.14917 -0.20254 213 ft 15 kts 256°
2026-05-04 20:04 51.14893 -0.20419 212 ft 16 kts 257°
2026-05-04 20:05 51.14869 -0.20590 215 ft 16 kts 257°
2026-05-04 20:05 51.14846 -0.20764 210 ft 16 kts 258°
2026-05-04 20:05 51.14821 -0.20939 216 ft 16 kts 257°
2026-05-04 20:05 51.14800 -0.21076 218 ft 0 kts 256°
2026-05-04 20:06 51.14797 -0.21095 218 ft 7 kts 254°
2026-05-04 20:06 51.14775 -0.21207 210 ft 6 kts 256°
2026-05-04 20:06 51.14775 -0.21209 210 ft 0 kts 257°
2026-05-04 20:09 51.14772 -0.21228 210 ft 7 kts 257°
2026-05-04 20:10 51.14764 -0.21280 214 ft 0 kts 257°
2026-05-04 20:12 51.14763 -0.21288 213 ft 5 kts 257°
2026-05-04 20:13 51.14734 -0.21374 218 ft 9 kts 214°
2026-05-04 20:13 51.14700 -0.21377 216 ft 7 kts 169°
2026-05-04 20:13 51.14685 -0.21368 219 ft 0 kts 158°
2026-05-04 20:13 51.14681 -0.21365 215 ft 0 kts 157°
2026-05-04 20:16 51.14680 -0.21365 219 ft 2 kts 156°
2026-05-04 20:16 51.14637 -0.21330 216 ft 0 kts 161°
2026-05-04 20:18 51.14580 -0.21300 212 ft 16 kts 156°
2026-05-04 20:19 51.14524 -0.21139 213 ft 17 kts 83°
2026-05-04 20:19 51.14532 -0.21075 216 ft 0 kts 77°
2026-05-04 20:20 51.14533 -0.21073 216 ft 3 kts 77°
2026-05-04 20:20 51.14573 -0.20782 215 ft 62 kts 78°
2026-05-04 20:20 51.14724 -0.19686 219 ft 139 kts 77°
2026-05-04 20:20 51.14936 -0.18024 624 ft 160 kts 82°
2026-05-04 20:21 51.15202 -0.16075 801 ft 201 kts 75°
2026-05-04 20:21 51.15525 -0.13867 1635 ft 206 kts 77°
2026-05-04 20:21 51.16182 -0.09046 3267 ft 242 kts 76°
2026-05-04 20:22 51.16557 -0.06346 4229 ft 254 kts 76°
2026-05-04 20:22 51.16895 -0.03533 5266 ft 264 kts 85°
2026-05-04 20:22 51.16820 -0.00540 5921 ft 274 kts 92°
2026-05-04 20:22 51.16769 0.02502 6000 ft 273 kts 90°
2026-05-04 20:23 51.16736 0.05518 5985 ft 273 kts 90°
2026-05-04 20:23 51.16685 0.08539 6002 ft 272 kts 91°
2026-05-04 20:23 51.16624 0.11553 6017 ft 272 kts 91°
2026-05-04 20:23 51.16565 0.14568 5995 ft 272 kts 91°
2026-05-04 20:24 51.16636 0.17653 5987 ft 272 kts 88°
2026-05-04 20:24 51.16606 0.20585 6002 ft 273 kts 91°
2026-05-04 20:24 51.16558 0.23632 6285 ft 277 kts 90°
2026-05-04 20:24 51.16568 0.26701 7220 ft 276 kts 89°
2026-05-04 20:25 51.16586 0.29765 8432 ft 279 kts 89°
2026-05-04 20:25 51.16591 0.32881 9577 ft 284 kts 90°
2026-05-04 20:25 51.16589 0.36057 10626 ft 288 kts 90°
2026-05-04 20:25 51.16587 0.39268 11666 ft 291 kts 90°
2026-05-04 20:26 51.16587 0.42518 12705 ft 295 kts 90°
2026-05-04 20:26 51.16586 0.45798 13737 ft 298 kts 90°
2026-05-04 20:26 51.16584 0.49122 14637 ft 303 kts 90°
2026-05-04 20:26 51.16582 0.52503 15519 ft 307 kts 90°
2026-05-04 20:27 51.16581 0.55966 16367 ft 312 kts 91°
2026-05-04 20:27 51.16579 0.59433 17151 ft 321 kts 91°
2026-05-04 20:27 51.16575 0.63134 17603 ft 340 kts 91°
2026-05-04 20:27 51.16568 0.66952 17932 ft 360 kts 91°
2026-05-04 20:28 51.16562 0.71061 18245 ft 381 kts 91°
2026-05-04 20:28 51.16554 0.75396 18482 ft 401 kts 91°
2026-05-04 20:28 51.16542 0.80014 18664 ft 422 kts 91°
2026-05-04 20:28 51.16529 0.84789 18866 ft 439 kts 91°
2026-05-04 20:29 51.16514 0.89709 19372 ft 448 kts 91°
2026-05-04 20:29 51.16495 0.94705 19937 ft 454 kts 91°
2026-05-04 20:29 51.16474 0.99759 20517 ft 459 kts 91°
2026-05-04 20:29 51.16451 1.04883 21103 ft 464 kts 91°
2026-05-04 20:30 51.16423 1.10050 21673 ft 469 kts 91°
2026-05-04 20:30 51.16397 1.15270 22230 ft 473 kts 91°
2026-05-04 20:30 51.16368 1.20528 22776 ft 478 kts 92°
2026-05-04 20:30 51.16333 1.25854 23022 ft 484 kts 92°
2026-05-04 20:31 51.16296 1.31206 23028 ft 480 kts 92°
2026-05-04 20:31 51.16239 1.36538 23027 ft 483 kts 94°
2026-05-04 20:31 51.15972 1.41851 23022 ft 481 kts 96°
2026-05-04 20:31 51.15722 1.47175 23019 ft 482 kts 95°
2026-05-04 20:32 51.15476 1.52500 23019 ft 481 kts 95°
2026-05-04 20:32 51.15218 1.57815 23014 ft 482 kts 96°
2026-05-04 20:32 51.14951 1.63145 23009 ft 482 kts 95°
2026-05-04 20:32 51.14690 1.68399 23019 ft 481 kts 95°
2026-05-04 20:33 51.14424 1.73782 23011 ft 481 kts 95°
2026-05-04 20:33 51.14157 1.79098 23008 ft 482 kts 95°
2026-05-04 20:33 51.13884 1.84415 23016 ft 481 kts 96°
2026-05-04 20:33 51.13611 1.89721 23003 ft 482 kts 95°
2026-05-04 20:34 51.13337 1.95036 23002 ft 481 kts 95°
2026-05-04 20:34 51.13059 2.00350 23016 ft 481 kts 95°
2026-05-04 20:34 51.12779 2.05651 23010 ft 481 kts 95°
2026-05-04 20:34 51.12496 2.10963 23012 ft 481 kts 96°
2026-05-04 20:35 51.12212 2.16271 23012 ft 481 kts 96°
2026-05-04 20:35 51.11923 2.21585 23013 ft 482 kts 96°
2026-05-04 20:35 51.11633 2.26893 23007 ft 482 kts 96°
2026-05-04 20:35 51.11345 2.32141 23007 ft 482 kts 96°
2026-05-04 20:36 51.11045 2.37517 23004 ft 483 kts 96°
2026-05-04 20:36 51.10750 2.42780 22995 ft 483 kts 96°
2026-05-04 20:36 51.10446 2.48177 22994 ft 484 kts 96°
2026-05-04 20:36 51.10143 2.53499 23005 ft 484 kts 96°
2026-05-04 20:37 51.09840 2.58774 22998 ft 484 kts 96°
2026-05-04 20:37 51.09512 2.64106 23009 ft 484 kts 98°
2026-05-04 20:37 51.08729 2.69378 23004 ft 483 kts 107°
2026-05-04 20:37 51.07794 2.74515 23008 ft 484 kts 107°
2026-05-04 20:38 51.06860 2.79581 23013 ft 484 kts 107°
2026-05-04 20:38 51.05923 2.84736 23011 ft 484 kts 107°
2026-05-04 20:38 51.04996 2.89889 23016 ft 484 kts 107°
2026-05-04 20:38 51.04059 2.95031 23014 ft 485 kts 107°
2026-05-04 20:39 51.03112 3.00170 23001 ft 485 kts 107°
2026-05-04 20:39 51.02472 3.03648 23004 ft 485 kts 107°
2026-05-04 20:39 51.01221 3.10460 22998 ft 485 kts 107°
2026-05-04 20:39 51.00276 3.15591 22995 ft 485 kts 107°
2026-05-04 20:40 50.99323 3.20727 22991 ft 485 kts 107°
2026-05-04 20:40 50.98370 3.25856 22982 ft 484 kts 107°
2026-05-04 20:40 50.97415 3.30987 22979 ft 484 kts 107°
2026-05-04 20:40 50.96771 3.34445 22980 ft 484 kts 107°
2026-05-04 20:41 50.95815 3.39559 22972 ft 483 kts 107°
2026-05-04 20:41 50.94857 3.44660 22978 ft 483 kts 107°
2026-05-04 20:41 50.93908 3.49703 22960 ft 467 kts 107°
2026-05-04 20:41 50.93013 3.54459 22962 ft 447 kts 107°
2026-05-04 20:42 50.92127 3.59147 22723 ft 432 kts 107°
2026-05-04 20:42 50.91273 3.63647 22429 ft 421 kts 107°
2026-05-04 20:42 50.90434 3.68041 22143 ft 413 kts 107°
2026-05-04 20:42 50.89596 3.72378 21863 ft 412 kts 107°
2026-05-04 20:43 50.88758 3.76712 21586 ft 411 kts 107°
2026-05-04 20:43 50.87935 3.80974 21314 ft 409 kts 107°
2026-05-04 20:43 50.87093 3.85329 21052 ft 407 kts 107°
2026-05-04 20:43 50.86267 3.89584 20967 ft 403 kts 107°
2026-05-04 20:44 50.85436 3.93852 20968 ft 407 kts 107°
2026-05-04 20:44 50.84606 3.98109 20966 ft 404 kts 108°
2026-05-04 20:44 50.83677 4.02862 20970 ft 405 kts 108°
2026-05-04 20:44 50.82939 4.06631 20970 ft 405 kts 108°
2026-05-04 20:45 50.82105 4.10876 20965 ft 405 kts 108°
2026-05-04 20:45 50.81268 4.15131 20970 ft 405 kts 108°
2026-05-04 20:45 50.80432 4.19374 20970 ft 405 kts 108°
2026-05-04 20:45 50.79593 4.23619 20966 ft 405 kts 108°
2026-05-04 20:46 50.78752 4.27863 20967 ft 405 kts 108°
2026-05-04 20:46 50.77910 4.32109 20964 ft 405 kts 108°
2026-05-04 20:46 50.77066 4.36350 20967 ft 405 kts 108°
2026-05-04 20:46 50.76222 4.40596 20966 ft 405 kts 107°
2026-05-04 20:47 50.75788 4.44982 20983 ft 407 kts 90°
2026-05-04 20:47 50.76212 4.49398 20994 ft 409 kts 72°
2026-05-04 20:47 50.77366 4.53500 20969 ft 410 kts 63°
2026-05-04 20:47 50.78734 4.57449 20974 ft 410 kts 61°
2026-05-04 20:48 50.80088 4.61415 20977 ft 409 kts 64°
2026-05-04 20:48 50.81296 4.65490 20974 ft 409 kts 66°
2026-05-04 20:48 50.82478 4.69587 20975 ft 409 kts 65°
2026-05-04 20:48 50.83723 4.73633 20974 ft 409 kts 64°
2026-05-04 20:49 50.84992 4.77680 20981 ft 410 kts 64°
2026-05-04 20:49 50.86228 4.81736 20980 ft 410 kts 65°
2026-05-04 20:49 50.87451 4.85815 20970 ft 410 kts 65°
2026-05-04 20:49 50.88682 4.89883 20970 ft 410 kts 65°
2026-05-04 20:50 50.89922 4.93953 20970 ft 411 kts 65°
2026-05-04 20:50 50.91161 4.98040 20969 ft 411 kts 65°
2026-05-04 20:50 50.92391 5.02124 20978 ft 411 kts 65°
2026-05-04 20:50 50.93622 5.06215 20969 ft 411 kts 65°
2026-05-04 20:51 50.94853 5.10303 20961 ft 412 kts 65°
2026-05-04 20:51 50.96086 5.14404 20961 ft 412 kts 65°
2026-05-04 20:51 50.97317 5.18513 20966 ft 412 kts 65°
2026-05-04 20:51 50.98532 5.22573 20962 ft 413 kts 65°
2026-05-04 20:52 50.99764 5.26693 20835 ft 416 kts 65°
2026-05-04 20:52 51.00999 5.30834 20449 ft 411 kts 66°
2026-05-04 20:52 51.02229 5.34963 20073 ft 406 kts 66°
2026-05-04 20:52 51.03433 5.39013 19704 ft 405 kts 66°
2026-05-04 20:53 51.04632 5.43055 19334 ft 403 kts 66°
2026-05-04 20:53 51.05822 5.47070 18979 ft 401 kts 66°
2026-05-04 20:53 51.07008 5.51080 18570 ft 400 kts 66°
2026-05-04 20:53 51.08184 5.55062 18078 ft 395 kts 66°
2026-05-04 20:54 51.09344 5.58994 17552 ft 391 kts 66°
2026-05-04 20:54 51.10492 5.62896 17012 ft 386 kts 66°
2026-05-04 20:54 51.11623 5.66745 16498 ft 382 kts 65°
2026-05-04 20:54 51.12744 5.70564 15985 ft 378 kts 65°
2026-05-04 20:55 51.13833 5.74281 15491 ft 373 kts 65°
2026-05-04 20:55 51.14917 5.77990 15220 ft 362 kts 65°
2026-05-04 20:55 51.15957 5.81549 15149 ft 346 kts 65°
2026-05-04 20:55 51.16964 5.85000 15074 ft 331 kts 65°
2026-05-04 20:56 51.17913 5.88261 14916 ft 320 kts 66°
2026-05-04 20:56 51.18839 5.91445 14622 ft 314 kts 66°
2026-05-04 20:56 51.19738 5.94543 14289 ft 310 kts 66°
2026-05-04 20:56 51.20650 5.97687 13939 ft 307 kts 66°
2026-05-04 20:57 51.21532 6.00732 13553 ft 305 kts 65°
2026-05-04 20:57 51.22416 6.03788 13138 ft 303 kts 65°
2026-05-04 20:57 51.23308 6.06873 12703 ft 301 kts 65°
2026-05-04 20:57 51.24167 6.09850 12300 ft 299 kts 66°
2026-05-04 20:58 51.25032 6.12851 11890 ft 297 kts 66°
2026-05-04 20:58 51.25891 6.15836 11491 ft 295 kts 66°
2026-05-04 20:58 51.26743 6.18800 11075 ft 293 kts 66°
2026-05-04 20:58 51.27591 6.21754 10668 ft 292 kts 66°
2026-05-04 20:59 51.28432 6.24687 10278 ft 290 kts 66°
2026-05-04 20:59 51.29267 6.27599 9992 ft 286 kts 66°
2026-05-04 20:59 51.30095 6.30495 9975 ft 289 kts 66°
2026-05-04 20:59 51.30930 6.33418 9971 ft 289 kts 66°
2026-05-04 21:00 51.31767 6.36349 9974 ft 290 kts 66°
2026-05-04 21:00 51.32601 6.39279 9978 ft 289 kts 66°
2026-05-04 21:00 51.33436 6.42210 9974 ft 290 kts 66°
2026-05-04 21:00 51.34270 6.45147 9972 ft 290 kts 66°
2026-05-04 21:01 51.35105 6.48087 9968 ft 290 kts 66°
2026-05-04 21:01 51.35940 6.51028 9965 ft 291 kts 66°
2026-05-04 21:01 51.36775 6.53976 9963 ft 291 kts 66°
2026-05-04 21:01 51.37608 6.56922 9983 ft 291 kts 66°
2026-05-04 21:02 51.38443 6.59878 9977 ft 291 kts 66°
2026-05-04 21:02 51.39270 6.62810 9733 ft 288 kts 67°
2026-05-04 21:02 51.40096 6.65738 9346 ft 288 kts 67°
2026-05-04 21:02 51.40916 6.68652 8955 ft 287 kts 67°
2026-05-04 21:03 51.41735 6.71564 8587 ft 286 kts 67°
2026-05-04 21:03 51.42551 6.74470 8226 ft 285 kts 67°
2026-05-04 21:03 51.43359 6.77352 7952 ft 281 kts 67°
2026-05-04 21:03 51.44151 6.80180 7736 ft 275 kts 67°
2026-05-04 21:04 51.44923 6.82936 7554 ft 267 kts 68°
2026-05-04 21:04 51.45679 6.85645 7302 ft 264 kts 68°
2026-05-04 21:04 51.46337 6.88359 7000 ft 260 kts 83°
2026-05-04 21:04 51.46029 6.91098 7005 ft 253 kts 122°
2026-05-04 21:05 51.45004 6.93301 6945 ft 240 kts 133°
2026-05-04 21:05 51.43888 6.95289 6524 ft 241 kts 135°
2026-05-04 21:05 51.42706 6.97322 5768 ft 257 kts 135°
2026-05-04 21:05 51.41459 6.99451 5176 ft 263 kts 135°
2026-05-04 21:06 51.40239 7.01542 5004 ft 253 kts 135°
2026-05-04 21:06 51.39057 7.03567 4628 ft 244 kts 135°
2026-05-04 21:06 51.37917 7.05518 4217 ft 236 kts 135°
2026-05-04 21:06 51.36816 7.07400 3995 ft 229 kts 135°
2026-05-04 21:07 51.35719 7.09271 3992 ft 230 kts 135°
2026-05-04 21:07 51.34672 7.11197 3957 ft 232 kts 123°
2026-05-04 21:07 51.34390 7.13742 3994 ft 242 kts 80°
2026-05-04 21:07 51.35200 7.16039 4005 ft 245 kts 39°
2026-05-04 21:08 51.36767 7.17043 4005 ft 242 kts 359°
2026-05-04 21:08 51.38326 7.16302 4005 ft 239 kts 324°
2026-05-04 21:08 51.39536 7.14541 3972 ft 234 kts 297°
2026-05-04 21:08 51.39942 7.12066 4003 ft 229 kts 271°
2026-05-04 21:09 51.39941 7.09553 3932 ft 220 kts 266°
2026-05-04 21:09 51.39877 7.07173 3825 ft 209 kts 265°
2026-05-04 21:09 51.39805 7.04830 3569 ft 210 kts 265°
2026-05-04 21:09 51.39734 7.02532 3324 ft 204 kts 265°
2026-05-04 21:10 51.39625 7.00278 3076 ft 197 kts 257°
2026-05-04 21:10 51.38938 6.98563 2997 ft 186 kts 226°
2026-05-04 21:10 51.38216 6.96901 3022 ft 176 kts 235°
2026-05-04 21:10 51.37455 6.95215 2805 ft 177 kts 232°
2026-05-04 21:11 51.36703 6.93621 2553 ft 180 kts 231°
2026-05-04 21:11 51.35950 6.92036 2319 ft 182 kts 231°
2026-05-04 21:11 51.35199 6.90453 2084 ft 180 kts 231°
2026-05-04 21:11 51.34444 6.88862 1832 ft 177 kts 231°
2026-05-04 21:12 51.33687 6.87269 1587 ft 175 kts 231°
2026-05-04 21:12 51.32999 6.85815 1362 ft 157 kts 231°
2026-05-04 21:12 51.32345 6.84436 1132 ft 152 kts 231°
2026-05-04 21:12 51.31697 6.83075 940 ft 153 kts 231°
2026-05-04 21:13 51.31051 6.81694 729 ft 161 kts 232°
2026-05-04 21:13 51.30368 6.80255 520 ft 159 kts 231°
2026-05-04 21:13 51.29718 6.78886 266 ft 148 kts 229°
2026-05-04 21:13 51.29142 6.77675 152 ft 109 kts 234°
2026-05-04 21:14 51.28808 6.76973 146 ft 61 kts 232°
2026-05-04 21:14 51.28565 6.76474 140 ft 56 kts 231°
2026-05-04 21:14 51.28332 6.76047 139 ft 37 kts 210°
2026-05-04 21:14 51.28137 6.75913 140 ft 20 kts 209°
2026-05-04 21:15 51.28071 6.75861 137 ft 3 kts 204°
2026-05-04 21:15 51.28014 6.75779 135 ft 15 kts 232°
2026-05-04 21:15 51.27969 6.75684 134 ft 16 kts 233°
2026-05-04 21:15 51.27876 6.75486 131 ft 13 kts 229°
2026-05-04 21:16 51.27842 6.75428 135 ft 6 kts 223°
2026-05-04 21:16 51.27821 6.75406 136 ft 4 kts 212°
2026-05-04 21:16 51.27769 6.75411 135 ft 9 kts 171°
2026-05-04 21:16 51.27754 6.75406 134 ft 4 kts 194°
2026-05-04 21:17 51.27721 6.75352 127 ft 9 kts 238°
2026-05-04 21:17 51.27713 6.75330 124 ft 0 kts 239°